Hourly Data Report for September 06, 2017

All times are specified in Local Standard Time (LST). Add 1 hour to adjust for Daylight Saving Time where and when it is observed.

OTTAWA INTL A
ONTARIO

45°19'00.000" N
75°40'00.000" W
114.90 m
6106001
71628
YOW

Download Data

Hourly Data (September 2017)
Hourly Data Report for September 6, 2017
Temp Definition
°C
Dew Point Temp Definition
°C
Rel Hum Definition
%
Wind Dir Definition
10's deg

Wind Spd Definition
km/h
Visibility Definition
km
Stn Press Definition
kPa
Hmdx Definition


Wind Chill Definition


Weather Definition


TIME
00:00 Legend Double Dagger 13.2 12.7 96 22 9 24.1 99.59     LegendNANA
01:00 Legend Double Dagger 13.0 12.4 96 22 11 12.9 99.60     Mostly Cloudy
02:00 Legend Double Dagger 12.4 12.0 97 25 7 12.9 99.63     LegendNANA
03:00 Legend Double Dagger 12.5 12.1 98 30 7 6.4 99.64     Fog
04:00 Legend Double Dagger 12.5 12.2 98 16 5 2.4 99.72     Fog
05:00 Legend Double Dagger 12.7 12.4 98 16 8 1.6 99.79     Fog
06:00 Legend Double Dagger 12.5 12.2 98 19 4 0.4 99.78     Fog
07:00 Legend Double Dagger 12.6 12.3 98 15 7 0.6 99.84     Fog
08:00 Legend Double Dagger 12.7 12.4 98 14 4 0.8 99.86     Fog
09:00 Legend Double Dagger 13.1 12.9 98 36 2 8.1 99.85     Fog
10:00 Legend Double Dagger 14.3 13.6 95 36 1 9.7 99.90     Fog
11:00 Legend Double Dagger 16.4 14.0 86 29 6 12.9 99.86     LegendNANA
12:00 Legend Double Dagger 18.3 13.6 74 36 2 12.9 99.88     LegendNANA
13:00 Legend Double Dagger 19.0 13.6 71 36 3 16.1 99.87     Mostly Cloudy
14:00 Legend Double Dagger 18.8 12.7 67 23 4 24.1 99.87     LegendNANA
15:00 Legend Double Dagger 19.1 13.4 69 12 5 24.1 99.81     LegendNANA
16:00 Legend Double Dagger 19.0 12.5 66 14 4 24.1 99.82     Cloudy
17:00 Legend Double Dagger 18.1 14.1 77 14 7 24.1 99.87     LegendNANA
18:00 Legend Double Dagger 16.4 13.7 84 12 8 24.1 99.84     LegendNANA
19:00 Legend Double Dagger 15.4 13.7 90 10 9 24.1 99.86     Cloudy
20:00 Legend Double Dagger 14.6 13.5 93 15 8 24.1 99.90     LegendNANA
21:00 Legend Double Dagger 14.6 13.6 94 13 3 24.1 99.86     LegendNANA
22:00 Legend Double Dagger 14.7 13.8 94 7 8 24.1 99.74     Cloudy
23:00 Legend Double Dagger 13.3 12.8 97 9 7 24.1 99.77     LegendNANA

Notes on Data Quality.

Legend

  • E = Estimated
  • M = Missing
  • NA = Not Available
  • ‡ = Partner data that is not subject to review by the National Climate Archives
Date modified: